Location: C�an Torras
(41.5052°N, 1.9280°E)
Time: 21:51:50
(UTC+00:00)

USA 234 - Pass Details

Date: 20 January 2021
Orbit: 1100 x 1107 km, 123.0° (Epoch: 01 March)

Event Time Altitude Azimuth Distance (km) Brightness Sun altitude
Exits shadow 18:40:16 24° 44° (NE) 2,093 4.3 -19.8°
Maximum altitude 18:42:12 28° 17° (NNE) 1,931 4.3 -20.1°
Drops below altitude 10° 18:47:34 10° 322° (NW) 2,967 5.9 -21.1°
Sets 18:50:24 0° 311° (NW) 3,927 6.8 -21.7°
